[[{"header":{"parameterUnit":"m.s-1","parameterCategory":1,"la1":30.2992,"la2":30.254,"lo1":-89.0895,"lo2":-89.0443,"dy":0.0025,"dx":0.0025,"nx":19,"ny":19,"refTime":"2026-03-26T03:00:00:Z","depth":0,"parameterNumber":2,"parameterNumberName":"U-component_of_WINDS"},"data":[0,0,0,0.799,0.7991,0.8052,0.8052,0.813,0.8131,0,0,0,0,0,0,0,0,0,0,0,0.797,0.797,0.799,0.7992,0.8052,0.8052,0.813,0.8131,0,0,0,0,0,0,0,0,0,0,0,0.7969,0.797,0.797,0.7992,0.8052,0.8052,0.813,0.8085,0,0,0,0,0,0,0,0,0,0,0.8027,0.8004,0.797,0.797,0.7992,0.8052,0.8052,0.8083,0.8088,0.8102,0,0.8111,0,0.8122,0.8136,0.8136,0,0,0,0.7995,0.8,0.8018,0.797,0.7993,0.8051,0.8025,0.8086,0.8091,0.8109,0.8113,0.8116,0.8123,0.8137,0.8137,0.8201,0.8201,0,0,0.7991,0.798,0.8014,0.8021,0.8008,0.8024,0.8027,0.8089,0.8094,0.8113,0.8117,0.8125,0.8137,0.8138,0.8201,0.8201,0,0,0,0.798,0.7977,0.7994,0.8018,0.8029,0.8025,0.803,0.8091,0.8097,0.8118,0.8126,0.8137,0.8138,0.8201,0.8201,0.8195,0,0,0,0.7978,0.7971,0.7993,0.7986,0.8027,0.806,0.803,0.8093,0.81,0.8125,0.8137,0.8139,0.8201,0.8201,0.8195,0.8195,0,0,0,0.7967,0.7969,0.7977,0.7986,0.801,0.8059,0.8069,0.8095,0.8105,0.8136,0.8139,0.8201,0.8201,0.8195,0.8194,0.8207,0,0,0,0.7953,0.7973,0.7976,0.8002,0.801,0.8054,0.8069,0.8103,0.813,0.8138,0.8201,0.8201,0.8195,0.8194,0.8207,0.8215,0.8217,0,0,0.7972,0.7975,0.7991,0.7996,0.8035,0.8046,0.8086,0.8124,0.814,0.8181,0.8183,0.8195,0.8194,0.8207,0.8235,0.8237,0,0,0,0.7993,0.8004,0.8017,0.804,0.8067,0.809,0.8122,0.8136,0.8171,0.8157,0.8204,0.8204,0.8212,0.8217,0.8218,0.8226,0.8203,0.8203,0.8203,0.8004,0.802,0.8048,0.8071,0.8093,0.8125,0.8145,0.817,0.8183,0.8194,0.8206,0.822,0.8225,0.8226,0.8234,0.8212,0.8212,0.8212,0.8212,0.8033,0.8051,0.8065,0.8096,0.8114,0.8143,0.8175,0.8182,0.8213,0.8213,0.8221,0.8218,0.8227,0.8235,0.8212,0.8212,0.8212,0.8212,0.8212,0.8041,0.8053,0.8067,0.8101,0.8126,0.8151,0.8178,0.8195,0.8212,0.822,0.8234,0.8234,0.8236,0.8225,0.8225,0.8225,0.8225,0.8226,0.8226,0.8044,0.806,0.8079,0.8108,0.8124,0.8149,0.8181,0.8199,0.8224,0.8234,0.8234,0.8246,0.8224,0.8218,0.8226,0.8226,0.8226,0.8226,0.8226,0.8066,0.8063,0.8092,0.8108,0.8144,0.8168,0.8189,0.8224,0.8242,0.8255,0.8265,0.8247,0.8252,0.8251,0.8246,0.8261,0.8261,0.8261,0.8261,0.8072,0.8076,0.8109,0.8133,0.816,0.8181,0.8217,0.8243,0.8271,0.8283,0.8284,0.8279,0.8277,0.8284,0.8282,0.8278,0.83,0.83,0.8301,0.8086,0.8093,0.8118,0.8141,0.817,0.8196,0.823,0.8261,0.8292,0.8302,0.8293,0.8292,0.8284,0.8281,0.829,0.8287,0.828,0,0]},{"header":{"parameterUnit":"m.s-1","parameterCategory":1,"la1":30.2992,"la2":30.254,"lo1":-89.0895,"lo2":-89.0443,"dy":0.0025,"dx":0.0025,"nx":19,"ny":19,"refTime":"2026-03-26T03:00:00:Z","depth":0,"parameterNumber":3,"parameterNumberName":"V-component_of_WINDS"},"data":[0,0,0,0.7174,0.7178,0.7371,0.7371,0.7602,0.7604,0,0,0,0,0,0,0,0,0,0,0,0.7108,0.7109,0.7174,0.7179,0.7371,0.7372,0.7601,0.7604,0,0,0,0,0,0,0,0,0,0,0,0.7108,0.7109,0.7111,0.7179,0.737,0.7372,0.7601,0.7461,0,0,0,0,0,0,0,0,0,0,0.7277,0.7208,0.7109,0.7111,0.718,0.737,0.7372,0.7455,0.747,0.7508,0,0.754,0,0.7575,0.7618,0.7619,0,0,0,0.7185,0.7195,0.7255,0.7111,0.7182,0.737,0.7286,0.7464,0.7481,0.7528,0.7543,0.7552,0.7579,0.7619,0.7621,0.7818,0.7819,0,0,0.7175,0.7138,0.7243,0.7265,0.7235,0.728,0.7292,0.7474,0.7488,0.7544,0.7558,0.7583,0.7621,0.7623,0.7818,0.7818,0,0,0,0.714,0.713,0.7186,0.7256,0.7291,0.7285,0.7299,0.748,0.7501,0.756,0.7585,0.7622,0.7625,0.7817,0.7818,0.7813,0,0,0,0.7134,0.711,0.7181,0.7161,0.7288,0.7388,0.73,0.7489,0.751,0.7584,0.7622,0.7627,0.7816,0.7817,0.7812,0.7817,0,0,0,0.7099,0.7106,0.7131,0.7158,0.724,0.7386,0.7418,0.7494,0.7526,0.7619,0.7627,0.7816,0.7817,0.7811,0.7815,0.7859,0,0,0,0.7051,0.7123,0.713,0.722,0.7238,0.7381,0.7417,0.7526,0.7606,0.7623,0.7816,0.7818,0.781,0.7814,0.7858,0.789,0.79,0,0,0.7121,0.713,0.7186,0.7198,0.7331,0.7355,0.7488,0.7595,0.7637,0.7755,0.7761,0.7812,0.7815,0.7859,0.7965,0.7973,0,0,0,0.7196,0.7236,0.7279,0.7353,0.7437,0.7509,0.76,0.764,0.7742,0.769,0.784,0.7843,0.787,0.7888,0.7894,0.792,0.7824,0.7824,0.7823,0.7243,0.7293,0.7389,0.7463,0.7534,0.7627,0.769,0.776,0.7789,0.7823,0.7859,0.7918,0.7936,0.7942,0.7968,0.7879,0.7879,0.7879,0.7879,0.7351,0.7416,0.7454,0.7561,0.7613,0.7703,0.7796,0.7813,0.7905,0.7895,0.7921,0.7907,0.7948,0.7974,0.788,0.788,0.788,0.788,0.788,0.7389,0.7429,0.7476,0.7589,0.767,0.7741,0.7828,0.7872,0.7915,0.7941,0.7984,0.7984,0.7991,0.7958,0.7958,0.7958,0.7958,0.7958,0.7959,0.7409,0.7463,0.7531,0.7626,0.7679,0.7756,0.7849,0.7903,0.7975,0.8,0.8001,0.8027,0.7942,0.7921,0.7962,0.7961,0.7961,0.7961,0.796,0.7502,0.7489,0.7593,0.7647,0.7762,0.784,0.7896,0.8002,0.8053,0.8094,0.8115,0.8044,0.8056,0.8052,0.8034,0.8103,0.8103,0.8103,0.8103,0.7535,0.7545,0.7663,0.7746,0.7832,0.7893,0.801,0.8083,0.8156,0.8191,0.8187,0.8167,0.816,0.8177,0.817,0.8154,0.8251,0.8252,0.8252,0.7595,0.7616,0.7707,0.778,0.7873,0.7952,0.8064,0.8157,0.8237,0.8259,0.8219,0.8213,0.8182,0.8169,0.819,0.8177,0.815,0,0]}]]